TimeCST,TemperatureF,Dew PointF,Humidity,Sea Level PressureIn,VisibilityMPH,Wind Direction,Wind SpeedMPH,Gust SpeedMPH,PrecipitationIn,Events,Conditions,WindDirDegrees,DateUTC
12:53 AM,36.0,33.1,89,30.12,4.0,NNE,12.7,-,0.12,Rain,Rain,20,2013-01-10 06:53:00
1:13 AM,35.6,33.8,93,30.14,7.0,NNE,10.4,-,0.01,Rain,Light Rain,30,2013-01-10 07:13:00
1:53 AM,36.0,33.1,89,30.09,8.0,NNE,11.5,-,0.03,Rain,Light Rain,30,2013-01-10 07:53:00
2:53 AM,36.0,33.1,89,30.06,10.0,North,13.8,-,0.00,,Overcast,360,2013-01-10 08:53:00
3:38 AM,35.6,33.8,93,30.06,5.0,North,12.7,-,N/A,,Overcast,360,2013-01-10 09:38:00
3:53 AM,35.1,33.1,92,30.03,1.8,North,10.4,-,N/A,,Overcast,10,2013-01-10 09:53:00
4:43 AM,35.6,33.8,93,30.00,2.0,North,10.4,-,N/A,,Overcast,10,2013-01-10 10:43:00
4:53 AM,35.1,33.1,92,29.98,2.0,NNE,11.5,-,N/A,,Overcast,20,2013-01-10 10:53:00
5:09 AM,35.6,33.8,93,30.00,1.5,North,11.5,-,N/A,,Overcast,10,2013-01-10 11:09:00
5:40 AM,35.6,33.8,93,29.98,1.0,NNE,8.1,-,N/A,,Overcast,20,2013-01-10 11:40:00
5:53 AM,35.1,34.0,96,29.96,1.0,NNE,8.1,-,N/A,,Overcast,20,2013-01-10 11:53:00
6:53 AM,35.1,33.1,92,29.97,1.0,NE,6.9,-,N/A,,Overcast,50,2013-01-10 12:53:00
7:43 AM,35.6,33.8,93,30.00,3.0,NNW,4.6,-,N/A,,Overcast,340,2013-01-10 13:43:00
7:53 AM,35.1,33.1,92,29.99,2.5,NNW,4.6,-,N/A,,Overcast,340,2013-01-10 13:53:00
8:03 AM,35.6,33.8,93,29.99,1.8,NNW,5.8,-,N/A,,Overcast,340,2013-01-10 14:03:00
8:32 AM,35.6,33.8,93,29.98,3.0,North,5.8,-,N/A,,Overcast,350,2013-01-10 14:32:00
8:43 AM,35.6,33.8,93,29.97,4.0,North,5.8,-,N/A,,Overcast,10,2013-01-10 14:43:00
8:53 AM,35.1,33.1,92,29.95,5.0,North,4.6,-,N/A,,Overcast,350,2013-01-10 14:53:00
9:48 AM,35.6,33.8,93,29.93,1.8,WNW,12.7,-,N/A,,Overcast,300,2013-01-10 15:48:00
9:53 AM,35.1,33.1,92,29.92,0.5,WNW,13.8,-,N/A,Fog,Fog,300,2013-01-10 15:53:00
10:14 AM,35.6,33.8,93,29.91,0.2,WNW,12.7,-,N/A,Fog,Fog,300,2013-01-10 16:14:00
10:24 AM,35.6,33.8,93,29.89,1.0,WNW,12.7,-,N/A,,Overcast,300,2013-01-10 16:24:00
10:32 AM,37.4,35.6,93,29.89,3.0,NW,10.4,-,N/A,,Mostly Cloudy,310,2013-01-10 16:32:00
10:53 AM,37.9,36.0,93,29.90,10.0,WNW,5.8,-,N/A,,Mostly Cloudy,290,2013-01-10 16:53:00
11:51 AM,39.2,37.4,93,29.90,10.0,SW,6.9,-,N/A,,Overcast,220,2013-01-10 17:51:00
11:53 AM,39.9,37.0,89,29.89,10.0,SW,6.9,-,N/A,,Overcast,220,2013-01-10 17:53:00
12:36 PM,42.8,37.4,81,29.85,10.0,South,6.9,-,N/A,,Overcast,190,2013-01-10 18:36:00
12:53 PM,43.0,37.9,82,29.82,10.0,South,8.1,-,N/A,,Overcast,180,2013-01-10 18:53:00
1:53 PM,45.0,39.0,80,29.78,10.0,SSW,12.7,-,N/A,,Mostly Cloudy,200,2013-01-10 19:53:00
2:48 PM,44.6,39.2,81,29.80,10.0,SSW,19.6,-,N/A,,Overcast,200,2013-01-10 20:48:00
2:53 PM,45.0,39.0,80,29.78,10.0,SSW,20.7,-,N/A,,Overcast,210,2013-01-10 20:53:00
3:04 PM,44.6,39.2,81,29.79,10.0,South,15.0,-,N/A,,Overcast,190,2013-01-10 21:04:00
3:53 PM,48.0,39.9,74,29.76,10.0,SSW,15.0,-,N/A,,Scattered Clouds,210,2013-01-10 21:53:00
4:53 PM,46.9,39.9,77,29.73,10.0,SSW,16.1,-,N/A,,Clear,210,2013-01-10 22:53:00
5:53 PM,42.1,37.9,85,29.73,10.0,South,9.2,-,N/A,,Clear,180,2013-01-10 23:53:00
6:53 PM,41.0,37.9,89,29.73,10.0,SSW,5.8,-,N/A,,Clear,200,2013-01-11 00:53:00
7:53 PM,37.0,35.1,93,29.72,9.0,South,9.2,-,N/A,,Clear,180,2013-01-11 01:53:00
8:53 PM,39.0,36.0,89,29.70,10.0,South,9.2,-,N/A,,Clear,180,2013-01-11 02:53:00
9:53 PM,39.9,36.0,86,29.70,10.0,SSW,15.0,-,N/A,,Clear,210,2013-01-11 03:53:00
10:53 PM,41.0,34.0,76,29.69,10.0,SSW,12.7,-,N/A,,Clear,210,2013-01-11 04:53:00
11:53 PM,42.1,32.0,67,29.67,10.0,SSW,20.7,-,N/A,,Clear,210,2013-01-11 05:53:00